Regional Weather Roundup
Issued by NWS

Home | Current Version | Previous Version | Graphics & Text | Print | Product List | Glossary On
Versions: 1 2 3 4 5 6 7 8 9 10 11 12 13 14 15 16 17 18 19 20 21 22 23 24 25 26 27 28 29 30 31 32 33 34 35 36 37 38 39 40 41 42 43 44 45 46 47 48 49 50
000
ASUS44 KMEG 031010
RWRTN
TENNESSEE HOURLY STATE WEATHER ROUNDUP
NATIONAL WEATHER SERVICE MEMPHIS TN
500 AM CDT SUN MAY 03 2015

TNZ002-004-019-021-049-052-054-088>092-031100-
WEST TENNESSEE

CITY           SKY/WX    TMP DP  RH WIND       PRES   REMARKS
MEMPHIS INTL   CLEAR     55  46  71 CALM      30.06R
NWS MEMPHIS      N/A     51 N/A N/A MISG        N/A
JACKSON        CLEAR     48  45  89 CALM      30.07S
DYERSBURG      PTCLDY    52  37  58 CALM      30.07S
PARIS          CLEAR     48  45  87 CALM      30.07S
LEXINGTON      CLEAR     45  45 100 CALM      30.08R
$$

TNZ008-025-027-028-033-062-065-066-031100-
NORTH MIDDLE TENNESSEE

CITY           SKY/WX    TMP DP  RH WIND       PRES   REMARKS
NASHVILLE      CLEAR     51  48  89 CALM      30.10R
CLARKSVILLE    CLEAR     49  48  97 SE3       30.08S FOG
SMYRNA         CLEAR     47  47 100 CALM      30.11R
COOKEVILLE     CLEAR     43  43 100 CALM      30.10R
CROSSVILLE     CLEAR     47  41  80 CALM      30.14R
$$

TNZ061-075-076-078-094-096-097-031100-
SOUTH MIDDLE TENNESSEE

CITY           SKY/WX    TMP DP  RH WIND       PRES   REMARKS
FAYETTEVILLE   CLEAR     52  46  82 CALM      30.10S
TULLAHOMA      CLEAR     45  43  93 CALM      30.11S
WINCHESTER     CLEAR     46  45  93 CALM      30.11S
MCMINNVILLE    CLEAR     45  45 100 CALM      30.11R
COLUMBIA       CLEAR     48  46  93 CALM      30.08S
SHELBYVILLE    CLEAR     48  48 100 CALM      30.11R
$$

TNZ017-018-042-046-047-031100-
NORTHEAST TENNESSEE

CITY           SKY/WX    TMP DP  RH WIND       PRES   REMARKS
TRI CITIES     PTCLDY    42  39  89 CALM      30.15S
ELIZABETHTON   SUNNY     41  37  87 NE3       30.16R
$$

TNZ012-013-036-069-073-074-031100-
CENTRAL EAST TENNESSEE

CITY           SKY/WX    TMP DP  RH WIND       PRES   REMARKS
KNOXVILLE      CLEAR     48  44  86 N3        30.12R
OAK RIDGE      CLEAR     47  44  90 CALM      30.15R
GATLINBURG     SUNNY     43  41  93 CALM      30.13R
MORRISTOWN     SUNNY     48  43  81 CALM      30.14R
$$

TNZ083-085-099-031100-
SOUTHEAST TENNESSEE

CITY           SKY/WX    TMP DP  RH WIND       PRES   REMARKS
CHATTANOOGA    CLEAR     51  48  89 CALM      30.12R
$$

SKY/WX REPORTED AS FAIR MEANS FEW OR NO CLOUDS BELOW
12 THOUSAND FEET.



USA.gov is the U.S. government's official web portal to all federal, state and local government web resources and services.